owner,sensor,date,latitude,longitude,vertical_datum,wind_speed,wind_to_direction,wind_speed_of_gust,qcFlag 
TABS,ioos:station:wmo:42045:1,2013-03-01T00:00:00Z,26.2168,-96.4998,4.0,6.08271321,5.94468687,8.52,'11111222,11111222,11111222' 
TABS,ioos:station:wmo:42045:1,2013-03-01T00:30:00Z,26.2168,-96.4998,4.0,6.295395142,4.007584712,8.78,'11111222,11111222,11111222' 
TABS,ioos:station:wmo:42045:1,2013-03-01T01:00:00Z,26.2168,-96.4998,4.0,6.48062497,350.4066777,9.62,'11111222,11111222,11111222' 
TABS,ioos:station:wmo:42045:1,2013-03-01T01:30:00Z,26.2168,-96.4998,4.0,6.039875827,5.700930174,8.27,'11111222,11111222,11111222' 
TABS,ioos:station:wmo:42045:1,2013-03-01T02:00:00Z,26.2168,-96.4998,4.0,6.345841158,7.606348014,8.55,'11111222,11111222,11111222' 
TABS,ioos:station:wmo:42045:1,2013-03-01T02:30:00Z,26.2168,-96.4998,4.0,6.333379824,12.21456859,8.84,'11111222,11111222,11111222' 
TABS,ioos:station:wmo:42045:1,2013-03-01T03:00:00Z,26.2168,-96.4998,4.0,6.118079764,355.5939119,8.77,'11111222,11111222,11111222' 
TABS,ioos:station:wmo:42045:1,2013-03-01T03:30:00Z,26.2168,-96.4998,4.0,6.180032362,359.8143674,8.5,'11111222,11144222,11111222' 
TABS,ioos:station:wmo:42045:1,2013-03-01T04:00:00Z,26.2168,-96.4998,4.0,6.138876119,3.081246255,8.57,'11111222,11111222,11111222' 
TABS,ioos:station:wmo:42045:1,2013-03-01T04:30:00Z,26.2168,-96.4998,4.0,6.180978887,1.019507268,8.3,'11111222,11111222,11111222' 
TABS,ioos:station:wmo:42045:1,2013-03-01T05:00:00Z,26.2168,-96.4998,4.0,6.019053082,3.142650705,8.49,'11111222,11111222,11111222' 
TABS,ioos:station:wmo:42045:1,2013-03-01T05:30:00Z,26.2168,-96.4998,4.0,6.288664405,3.007781396,9.68,'11111222,11111222,11111222' 
TABS,ioos:station:wmo:42045:1,2013-03-01T06:00:00Z,26.2168,-96.4998,4.0,6.371954174,353.4212959,9.22,'11111222,11111222,11111222' 
TABS,ioos:station:wmo:42045:1,2013-03-01T06:30:00Z,26.2168,-96.4998,4.0,6.662169316,358.5376056,9.78,'11111222,11111222,11111222' 
TABS,ioos:station:wmo:42045:1,2013-03-01T07:00:00Z,26.2168,-96.4998,4.0,6.466506012,2.570159357,9.33,'11111222,11111222,11111222' 
TABS,ioos:station:wmo:42045:1,2013-03-01T07:30:00Z,26.2168,-96.4998,4.0,6.022864767,14.91278817,8.08,'11111222,11111222,11111222' 
TABS,ioos:station:wmo:42045:1,2013-03-01T08:00:00Z,26.2168,-96.4998,4.0,6.175694293,355.9141823,8.91,'11111222,11111222,11111222' 
TABS,ioos:station:wmo:42045:1,2013-03-01T08:30:00Z,26.2168,-96.4998,4.0,6.609145179,5.382574869,9.53,'11111222,11111222,11111222' 
TABS,ioos:station:wmo:42045:1,2013-03-01T09:00:00Z,26.2168,-96.4998,4.0,6.349338548,7.147174711,8.82,'11111222,11111222,11111222' 
TABS,ioos:station:wmo:42045:1,2013-03-01T09:30:00Z,26.2168,-96.4998,4.0,6.698208716,17.7313846,8.96,'11111222,11111222,11111222' 
TABS,ioos:station:wmo:42045:1,2013-03-01T10:00:00Z,26.2168,-96.4998,4.0,6.370761336,33.86438354,8.45,'11111222,11111222,11111222' 
TABS,ioos:station:wmo:42045:1,2013-03-01T10:30:00Z,26.2168,-96.4998,4.0,6.356618598,25.23443623,8.26,'11111222,11111222,11111222' 
TABS,ioos:station:wmo:42045:1,2013-03-01T11:00:00Z,26.2168,-96.4998,4.0,6.094956932,17.27526341,8.33,'11111222,11111222,11111222' 
TABS,ioos:station:wmo:42045:1,2013-03-01T11:30:00Z,26.2168,-96.4998,4.0,6.027644648,20.38890664,8.27,'11111222,11111222,11111222' 
TABS,ioos:station:wmo:42045:1,2013-03-01T12:00:00Z,26.2168,-96.4998,4.0,5.174408179,16.1580856,7.12,'11111222,11111222,11111222' 
TABS,ioos:station:wmo:42045:1,2013-03-01T12:30:00Z,26.2168,-96.4998,4.0,4.733201876,20.27242775,6.88,'11111222,11111222,11111222' 
TABS,ioos:station:wmo:42045:1,2013-03-01T13:00:00Z,26.2168,-96.4998,4.0,5.105330548,17.08597632,6.51,'11111222,11111222,11111222' 
TABS,ioos:station:wmo:42045:1,2013-03-01T13:30:00Z,26.2168,-96.4998,4.0,5.1804633,5.094074203,7.15,'11111222,11111222,11111222' 
TABS,ioos:station:wmo:42045:1,2013-03-01T14:00:00Z,26.2168,-96.4998,4.0,5.124578031,11.59474618,6.53,'11111222,11111222,11111222' 
TABS,ioos:station:wmo:42045:1,2013-03-01T14:30:00Z,26.2168,-96.4998,4.0,4.805767368,8.736867019,6.62,'11111222,11111222,11111222' 
TABS,ioos:station:wmo:42045:1,2013-03-01T15:00:00Z,26.2168,-96.4998,4.0,4.419558802,7.671517498,6.45,'11111222,11111222,11111222' 
TABS,ioos:station:wmo:42045:1,2013-03-01T15:30:00Z,26.2168,-96.4998,4.0,4.297278208,3.334924683,5.61,'11111222,11111222,11111222' 
TABS,ioos:station:wmo:42045:1,2013-03-01T16:00:00Z,26.2168,-96.4998,4.0,4.430045146,0.25845887,6.52,'11111222,11111222,11111222' 
TABS,ioos:station:wmo:42045:1,2013-03-01T16:30:00Z,26.2168,-96.4998,4.0,3.932797986,349.7470896,5.46,'11111222,11111222,11111222' 
TABS,ioos:station:wmo:42045:1,2013-03-01T17:00:00Z,26.2168,-96.4998,4.0,2.880850569,341.3762051,4.43,'11111222,11111222,11111222' 
TABS,ioos:station:wmo:42045:1,2013-03-01T17:30:00Z,26.2168,-96.4998,4.0,2.989648809,351.9239121,4.88,'11111222,11111222,11111222' 
TABS,ioos:station:wmo:42045:1,2013-03-01T18:00:00Z,26.2168,-96.4998,4.0,4.034959727,324.3796601,5.66,'11111222,11111222,11111222' 
TABS,ioos:station:wmo:42045:1,2013-03-01T18:30:00Z,26.2168,-96.4998,4.0,3.401132164,329.8161795,4.92,'11111222,11111222,11111222' 
TABS,ioos:station:wmo:42045:1,2013-03-01T19:00:00Z,26.2168,-96.4998,4.0,4.021852807,325.6380895,5.5,'11111222,11111222,11111222' 
TABS,ioos:station:wmo:42045:1,2013-03-01T19:30:00Z,26.2168,-96.4998,4.0,4.427154843,318.3878428,5.78,'11111222,11111222,11111222' 
TABS,ioos:station:wmo:42045:1,2013-03-01T20:00:00Z,26.2168,-96.4998,4.0,5.014957627,305.750095,6.52,'11111222,11111222,11111222' 
TABS,ioos:station:wmo:42045:1,2013-03-01T20:30:00Z,26.2168,-96.4998,4.0,3.974317551,310.1008138,5.49,'11111222,11111222,11111222' 
TABS,ioos:station:wmo:42045:1,2013-03-01T21:00:00Z,26.2168,-96.4998,4.0,3.4525353,313.1220217,4.64,'11111222,11111222,11111222' 
TABS,ioos:station:wmo:42045:1,2013-03-01T21:30:00Z,26.2168,-96.4998,4.0,2.611225766,339.1356162,3.87,'11111222,11111222,11111222' 
TABS,ioos:station:wmo:42045:1,2013-03-01T22:00:00Z,26.2168,-96.4998,4.0,2.594802497,16.33944759,3.47,'11111222,11111222,11111222' 
TABS,ioos:station:wmo:42045:1,2013-03-01T22:30:00Z,26.2168,-96.4998,4.0,2.516028617,23.91597903,3.43,'11111222,11111222,11111222' 
TABS,ioos:station:wmo:42045:1,2013-03-01T23:00:00Z,26.2168,-96.4998,4.0,2.943365421,60.03746505,3.74,'11111222,11111222,11111222' 
TABS,ioos:station:wmo:42045:1,2013-03-01T23:30:00Z,26.2168,-96.4998,4.0,3.394849039,80.67600911,4.69,'11111222,11111222,11111222' 
TABS,ioos:station:wmo:42045:1,2013-03-02T00:00:00Z,26.2168,-96.4998,4.0,4.094410825,87.33983536,5.3,'11111222,11111222,11111222' 
TABS,ioos:station:wmo:42045:1,2013-03-02T00:30:00Z,26.2168,-96.4998,4.0,4.25,98.79781106,5.16,'11111222,11111222,11111222' 
TABS,ioos:station:wmo:42045:1,2013-03-02T01:00:00Z,26.2168,-96.4998,4.0,5.201941945,117.5998707,6.4,'11111222,11111222,11111222' 
TABS,ioos:station:wmo:42045:1,2013-03-02T01:30:00Z,26.2168,-96.4998,4.0,5.15340664,124.2454631,6.14,'11111222,11111222,11111222' 
TABS,ioos:station:wmo:42045:1,2013-03-02T02:00:00Z,26.2168,-96.4998,4.0,5.25384621,134.7689752,6.37,'11111222,11111222,11111222' 
TABS,ioos:station:wmo:42045:1,2013-03-02T02:30:00Z,26.2168,-96.4998,4.0,5.660565343,142.3206205,6.65,'11111222,11111222,11111222' 
TABS,ioos:station:wmo:42045:1,2013-03-02T03:00:00Z,26.2168,-96.4998,4.0,5.905675237,147.3058654,7.28,'11111222,11111222,11111222' 
TABS,ioos:station:wmo:42045:1,2013-03-02T03:30:00Z,26.2168,-96.4998,4.0,6.129437168,151.762831,7.28,'11111222,11111222,11111222' 
TABS,ioos:station:wmo:42045:1,2013-03-02T04:00:00Z,26.2168,-96.4998,4.0,6.037921828,160.4549467,7.0,'11111222,11111222,11111222' 
TABS,ioos:station:wmo:42045:1,2013-03-02T04:30:00Z,26.2168,-96.4998,4.0,6.690366208,155.5421378,7.86,'11111222,11111222,11111222' 
TABS,ioos:station:wmo:42045:1,2013-03-02T05:00:00Z,26.2168,-96.4998,4.0,6.663550105,162.3538519,7.58,'11111222,11111222,11111222' 
TABS,ioos:station:wmo:42045:1,2013-03-02T05:30:00Z,26.2168,-96.4998,4.0,6.752192237,165.9434195,7.95,'11111222,11111222,11111222' 
TABS,ioos:station:wmo:42045:1,2013-03-02T06:00:00Z,26.2168,-96.4998,4.0,7.159643846,175.7549581,8.95,'11111222,11111222,11111222' 
TABS,ioos:station:wmo:42045:1,2013-03-02T06:30:00Z,26.2168,-96.4998,4.0,7.532655574,181.5216495,9.35,'11111222,11111222,11111222' 
TABS,ioos:station:wmo:42045:1,2013-03-02T07:00:00Z,26.2168,-96.4998,4.0,7.31641989,190.2349893,8.73,'11111222,11111222,11111222' 
TABS,ioos:station:wmo:42045:1,2013-03-02T07:30:00Z,26.2168,-96.4998,4.0,6.733386963,202.0701897,8.44,'11111222,11111222,11111222' 
TABS,ioos:station:wmo:42045:1,2013-03-02T08:00:00Z,26.2168,-96.4998,4.0,6.68923015,225.0001052,7.94,'11111222,11111222,11111222' 
TABS,ioos:station:wmo:42045:1,2013-03-02T08:30:00Z,26.2168,-96.4998,4.0,6.841849165,245.3828368,8.53,'11111222,11111222,11111222' 
TABS,ioos:station:wmo:42045:1,2013-03-02T09:00:00Z,26.2168,-96.4998,4.0,6.447480128,256.9121634,7.73,'11111222,11111222,11111222' 
TABS,ioos:station:wmo:42045:1,2013-03-02T09:30:00Z,26.2168,-96.4998,4.0,6.207906249,247.8558658,7.61,'11111222,11111222,11111222' 
TABS,ioos:station:wmo:42045:1,2013-03-02T10:00:00Z,26.2168,-96.4998,4.0,6.687675231,242.0938863,7.92,'11111222,11111222,11111222' 
TABS,ioos:station:wmo:42045:1,2013-03-02T10:30:00Z,26.2168,-96.4998,4.0,6.929884559,235.0487016,8.37,'11111222,11111222,11111222' 
TABS,ioos:station:wmo:42045:1,2013-03-02T11:00:00Z,26.2168,-96.4998,4.0,8.086711322,231.1743045,9.94,'11111222,11111222,11111222' 
TABS,ioos:station:wmo:42045:1,2013-03-02T11:30:00Z,26.2168,-96.4998,4.0,7.980607746,239.8366543,9.27,'11111222,11111222,11111222' 
TABS,ioos:station:wmo:42045:1,2013-03-02T12:00:00Z,26.2168,-96.4998,4.0,7.416367035,250.7099989,8.67,'11111222,11111222,11111222' 
TABS,ioos:station:wmo:42045:1,2013-03-02T12:30:00Z,26.2168,-96.4998,4.0,8.203121357,264.1226211,9.94,'11111222,11111222,11111222' 
TABS,ioos:station:wmo:42045:1,2013-03-02T13:00:00Z,26.2168,-96.4998,4.0,9.23315764,277.2173623,11.25,'11111222,11111222,11111222' 
TABS,ioos:station:wmo:42045:1,2013-03-02T13:30:00Z,26.2168,-96.4998,4.0,7.930952024,301.8062064,9.79,'11111222,11111222,11111222' 
TABS,ioos:station:wmo:42045:1,2013-03-02T14:00:00Z,26.2168,-96.4998,4.0,7.206004441,314.2689792,11.5,'11111222,11111222,11111222' 
TABS,ioos:station:wmo:42045:1,2013-03-02T14:30:00Z,26.2168,-96.4998,4.0,6.920874222,322.2192859,10.39,'11111222,11111222,11111222' 
TABS,ioos:station:wmo:42045:1,2013-03-02T15:00:00Z,26.2168,-96.4998,4.0,6.426173045,328.6844152,9.95,'11111222,11111222,11111222' 
TABS,ioos:station:wmo:42045:1,2013-03-02T15:30:00Z,26.2168,-96.4998,4.0,5.833429523,339.1104146,11.88,'11111222,11111222,11111222' 
TABS,ioos:station:wmo:42045:1,2013-03-02T16:00:00Z,26.2168,-96.4998,4.0,5.770970456,329.2574545,9.94,'11111222,11111222,11111222' 
TABS,ioos:station:wmo:42045:1,2013-03-02T16:30:00Z,26.2168,-96.4998,4.0,5.536731888,335.7956929,9.84,'11111222,11111222,11111222' 
TABS,ioos:station:wmo:42045:1,2013-03-02T17:00:00Z,26.2168,-96.4998,4.0,5.851034097,330.8501412,10.07,'11111222,11111222,11111222' 
TABS,ioos:station:wmo:42045:1,2013-03-02T17:30:00Z,26.2168,-96.4998,4.0,5.927807352,318.2138378,9.31,'11111222,11111222,11111222' 
TABS,ioos:station:wmo:42045:1,2013-03-02T18:00:00Z,26.2168,-96.4998,4.0,5.686897221,329.1052196,9.12,'11111222,11111222,11111222' 
TABS,ioos:station:wmo:42045:1,2013-03-02T18:30:00Z,26.2168,-96.4998,4.0,5.82158913,326.4189872,10.14,'11111222,11111222,11111222' 
TABS,ioos:station:wmo:42045:1,2013-03-02T19:00:00Z,26.2168,-96.4998,4.0,5.975056485,314.9320893,9.62,'11111222,11111222,11111222' 
TABS,ioos:station:wmo:42045:1,2013-03-02T19:30:00Z,26.2168,-96.4998,4.0,5.506686844,321.3400717,9.57,'11111222,11111222,11111222' 
TABS,ioos:station:wmo:42045:1,2013-03-02T20:00:00Z,26.2168,-96.4998,4.0,5.622543908,325.433616,9.31,'11111222,11111222,11111222' 
TABS,ioos:station:wmo:42045:1,2013-03-02T20:30:00Z,26.2168,-96.4998,4.0,5.364000373,318.7034291,10.41,'11111222,11111222,11111222' 
TABS,ioos:station:wmo:42045:1,2013-03-02T21:00:00Z,26.2168,-96.4998,4.0,5.577902832,329.9874217,9.17,'11111222,11111222,11111222' 
TABS,ioos:station:wmo:42045:1,2013-03-02T21:30:00Z,26.2168,-96.4998,4.0,5.649867255,326.8442071,9.09,'11111222,11111222,11111222' 
TABS,ioos:station:wmo:42045:1,2013-03-02T22:00:00Z,26.2168,-96.4998,4.0,5.506187429,342.4533723,8.34,'11111222,11111222,11111222' 
TABS,ioos:station:wmo:42045:1,2013-03-02T22:30:00Z,26.2168,-96.4998,4.0,6.034509094,351.6145831,8.6,'11111222,11111222,11111222' 
TABS,ioos:station:wmo:42045:1,2013-03-02T23:00:00Z,26.2168,-96.4998,4.0,6.130587248,350.138009,8.77,'11111222,11111222,11111222' 
TABS,ioos:station:wmo:42045:1,2013-03-02T23:30:00Z,26.2168,-96.4998,4.0,6.100204915,359.5301636,9.12,'11111222,11144222,11111222' 
TABS,ioos:station:wmo:42045:1,2013-03-03T00:00:00Z,26.2168,-96.4998,4.0,6.567411971,6.118376874,9.71,'11111222,11111222,11111222' 
TABS,ioos:station:wmo:42045:1,2013-03-03T00:30:00Z,26.2168,-96.4998,4.0,6.412643761,7.346434721,9.54,'11111222,11111222,11111222' 
TABS,ioos:station:wmo:42045:1,2013-03-03T01:00:00Z,26.2168,-96.4998,4.0,6.303173804,11.34534936,9.59,'11111222,11111222,11111222' 
TABS,ioos:station:wmo:42045:1,2013-03-03T01:30:00Z,26.2168,-96.4998,4.0,6.434011191,16.15309472,9.88,'11111222,11111222,11111222' 
TABS,ioos:station:wmo:42045:1,2013-03-03T02:00:00Z,26.2168,-96.4998,4.0,6.551618121,22.33706107,8.59,'11111222,11111222,11111222' 
TABS,ioos:station:wmo:42045:1,2013-03-03T02:30:00Z,26.2168,-96.4998,4.0,6.76490946,31.95123176,9.5,'11111222,11111222,11111222' 
TABS,ioos:station:wmo:42045:1,2013-03-03T03:00:00Z,26.2168,-96.4998,4.0,7.46094498,33.24249795,10.3,'11111222,11111222,11111222' 
TABS,ioos:station:wmo:42045:1,2013-03-03T03:30:00Z,26.2168,-96.4998,4.0,7.255260161,45.55810372,9.91,'11111222,11111222,11111222' 
TABS,ioos:station:wmo:42045:1,2013-03-03T04:00:00Z,26.2168,-96.4998,4.0,6.690440942,43.90962386,8.9,'11111222,11111222,11111222' 
TABS,ioos:station:wmo:42045:1,2013-03-03T04:30:00Z,26.2168,-96.4998,4.0,6.646058983,47.49982308,9.01,'11111222,11111222,11111222' 
TABS,ioos:station:wmo:42045:1,2013-03-03T05:00:00Z,26.2168,-96.4998,4.0,6.962312834,52.58661923,9.45,'11111222,11111222,11111222' 
TABS,ioos:station:wmo:42045:1,2013-03-03T05:30:00Z,26.2168,-96.4998,4.0,6.928585714,60.32656636,9.09,'11111222,11111222,11111222' 
TABS,ioos:station:wmo:42045:1,2013-03-03T06:00:00Z,26.2168,-96.4998,4.0,6.644223055,57.60121486,8.37,'11111222,11111222,11111222' 
TABS,ioos:station:wmo:42045:1,2013-03-03T06:30:00Z,26.2168,-96.4998,4.0,6.922022826,58.46806771,9.04,'11111222,11111222,11111222' 
TABS,ioos:station:wmo:42045:1,2013-03-03T07:00:00Z,26.2168,-96.4998,4.0,6.973578708,59.68407185,9.68,'11111222,11111222,11111222' 
TABS,ioos:station:wmo:42045:1,2013-03-03T07:30:00Z,26.2168,-96.4998,4.0,6.867459501,55.8005148,8.44,'11111222,11111222,11111222' 
TABS,ioos:station:wmo:42045:1,2013-03-03T08:00:00Z,26.2168,-96.4998,4.0,6.936699503,62.80661648,8.83,'11111222,11111222,11111222' 
TABS,ioos:station:wmo:42045:1,2013-03-03T08:30:00Z,26.2168,-96.4998,4.0,6.489329703,63.94790737,8.42,'11111222,11111222,11111222' 
TABS,ioos:station:wmo:42045:1,2013-03-03T09:00:00Z,26.2168,-96.4998,4.0,6.463629012,62.24523192,7.83,'11111222,11111222,11111222' 
TABS,ioos:station:wmo:42045:1,2013-03-03T09:30:00Z,26.2168,-96.4998,4.0,5.56510557,57.62321839,7.12,'11111222,11111222,11111222' 
TABS,ioos:station:wmo:42045:1,2013-03-03T10:00:00Z,26.2168,-96.4998,4.0,5.555042754,62.55815496,6.82,'11111222,11111222,11111222' 
TABS,ioos:station:wmo:42045:1,2013-03-03T10:30:00Z,26.2168,-96.4998,4.0,4.535570526,66.20388921,5.65,'11111222,11111222,11111222' 
TABS,ioos:station:wmo:42045:1,2013-03-03T11:00:00Z,26.2168,-96.4998,4.0,4.373122454,65.83760326,5.76,'11111222,11111222,11111222' 
TABS,ioos:station:wmo:42045:1,2013-03-03T11:30:00Z,26.2168,-96.4998,4.0,3.835101042,58.21597747,5.14,'11111222,11111222,11111222' 
TABS,ioos:station:wmo:42045:1,2013-03-03T12:00:00Z,26.2168,-96.4998,4.0,3.153569406,64.65346241,3.97,'11111222,11111222,11111222' 
TABS,ioos:station:wmo:42045:1,2013-03-03T12:30:00Z,26.2168,-96.4998,4.0,2.387571988,71.94410918,3.41,'11111222,11111222,11111222' 
TABS,ioos:station:wmo:42045:1,2013-03-03T13:00:00Z,26.2168,-96.4998,4.0,2.211176158,80.36688353,3.28,'11111222,11111222,11111222' 
TABS,ioos:station:wmo:42045:1,2013-03-03T13:30:00Z,26.2168,-96.4998,4.0,1.962549362,92.92113561,2.74,'11111222,11111222,11111222' 
TABS,ioos:station:wmo:42045:1,2013-03-03T14:00:00Z,26.2168,-96.4998,4.0,1.922004162,81.32143049,3.26,'11111222,11111222,11111222' 
TABS,ioos:station:wmo:42045:1,2013-03-03T14:30:00Z,26.2168,-96.4998,4.0,2.04413796,96.74299176,3.14,'11111222,11111222,11111222' 
TABS,ioos:station:wmo:42045:1,2013-03-03T15:00:00Z,26.2168,-96.4998,4.0,2.128778993,116.2043077,3.03,'11111222,11111222,11111222' 
TABS,ioos:station:wmo:42045:1,2013-03-03T15:30:00Z,26.2168,-96.4998,4.0,1.753282636,115.6885043,2.6,'11111222,11111222,11111222' 
TABS,ioos:station:wmo:42045:1,2013-03-03T16:00:00Z,26.2168,-96.4998,4.0,1.869465164,129.138788,2.83,'11111222,11111222,11111222' 
TABS,ioos:station:wmo:42045:1,2013-03-03T16:30:00Z,26.2168,-96.4998,4.0,2.438216561,147.2227032,3.91,'11111222,11111222,11111222' 
TABS,ioos:station:wmo:42045:1,2013-03-03T17:00:00Z,26.2168,-96.4998,4.0,3.068941185,154.9382608,3.96,'11111222,11111222,11111222' 
TABS,ioos:station:wmo:42045:1,2013-03-03T17:30:00Z,26.2168,-96.4998,4.0,3.781335743,151.4019105,5.3,'11111222,11111222,11111222' 
TABS,ioos:station:wmo:42045:1,2013-03-03T18:00:00Z,26.2168,-96.4998,4.0,4.021554426,159.6276388,4.99,'11111222,11111222,11111222' 
TABS,ioos:station:wmo:42045:1,2013-03-03T18:30:00Z,26.2168,-96.4998,4.0,4.760105041,159.2047197,5.69,'11111222,11111222,11111222' 
TABS,ioos:station:wmo:42045:1,2013-03-03T19:00:00Z,26.2168,-96.4998,4.0,5.636896309,162.9797246,6.8,'11111222,11111222,11111222' 
TABS,ioos:station:wmo:42045:1,2013-03-03T19:30:00Z,26.2168,-96.4998,4.0,5.232332176,151.0839409,6.39,'11111222,11111222,11111222' 
TABS,ioos:station:wmo:42045:1,2013-03-03T20:00:00Z,26.2168,-96.4998,4.0,5.765552879,150.9456743,6.78,'11111222,11111222,11111222' 
TABS,ioos:station:wmo:42045:1,2013-03-03T20:30:00Z,26.2168,-96.4998,4.0,5.730174517,154.6873858,6.65,'11111222,11111222,11111222' 
TABS,ioos:station:wmo:42045:1,2013-03-03T21:00:00Z,26.2168,-96.4998,4.0,5.815573918,156.9181023,7.34,'11111222,11111222,11111222' 
TABS,ioos:station:wmo:42045:1,2013-03-03T21:30:00Z,26.2168,-96.4998,4.0,6.195885732,151.9876251,7.25,'11111222,11111222,11111222' 
TABS,ioos:station:wmo:42045:1,2013-03-03T22:00:00Z,26.2168,-96.4998,4.0,6.872648689,157.9511555,8.14,'11111222,11111222,11111222' 
TABS,ioos:station:wmo:42045:1,2013-03-03T22:30:00Z,26.2168,-96.4998,4.0,7.219037332,149.8124,8.41,'11111222,11111222,11111222' 
TABS,ioos:station:wmo:42045:1,2013-03-03T23:00:00Z,26.2168,-96.4998,4.0,7.133932997,154.3331987,8.33,'11111222,11111222,11111222' 
TABS,ioos:station:wmo:42045:1,2013-03-03T23:30:00Z,26.2168,-96.4998,4.0,7.403546447,152.0507019,8.64,'11111222,11111222,11111222' 
TABS,ioos:station:wmo:42045:1,2013-03-04T00:00:00Z,26.2168,-96.4998,4.0,7.050567353,150.890423,8.8,'11111222,11111222,11111222' 
TABS,ioos:station:wmo:42045:1,2013-03-04T00:30:00Z,26.2168,-96.4998,4.0,7.786141535,151.460292,8.93,'11111222,11111222,11111222' 
TABS,ioos:station:wmo:42045:1,2013-03-04T01:00:00Z,26.2168,-96.4998,4.0,8.358767852,153.9563552,9.9,'11111222,11111222,11111222' 
TABS,ioos:station:wmo:42045:1,2013-03-04T01:30:00Z,26.2168,-96.4998,4.0,8.117191633,155.392745,9.6,'11111222,11111222,11111222' 
TABS,ioos:station:wmo:42045:1,2013-03-04T02:00:00Z,26.2168,-96.4998,4.0,8.946602707,151.200707,10.73,'11111222,11111222,11111222' 
TABS,ioos:station:wmo:42045:1,2013-03-04T02:30:00Z,26.2168,-96.4998,4.0,9.360389949,153.8184642,10.68,'11111222,11111222,11111222' 
TABS,ioos:station:wmo:42045:1,2013-03-04T03:00:00Z,26.2168,-96.4998,4.0,9.424611398,151.3412991,11.22,'11111222,11111222,11111222' 
TABS,ioos:station:wmo:42045:1,2013-03-04T03:30:00Z,26.2168,-96.4998,4.0,9.464993397,154.5993867,11.09,'11111222,11111222,11111222' 
TABS,ioos:station:wmo:42045:1,2013-03-04T04:00:00Z,26.2168,-96.4998,4.0,9.572042624,154.5060434,11.35,'11111222,11111222,11111222' 
TABS,ioos:station:wmo:42045:1,2013-03-04T04:30:00Z,26.2168,-96.4998,4.0,9.986115361,156.3873145,11.25,'11111222,11111222,11111222' 
TABS,ioos:station:wmo:42045:1,2013-03-04T05:00:00Z,26.2168,-96.4998,4.0,10.13921101,158.5976064,11.69,'11111222,11111222,11111222' 
TABS,ioos:station:wmo:42045:1,2013-03-04T05:30:00Z,26.2168,-96.4998,4.0,10.11773196,160.544515,12.12,'11111222,11111222,11111222' 
TABS,ioos:station:wmo:42045:1,2013-03-04T06:00:00Z,26.2168,-96.4998,4.0,10.17351955,161.0132034,12.09,'11111222,11111222,11111222' 
TABS,ioos:station:wmo:42045:1,2013-03-04T06:30:00Z,26.2168,-96.4998,4.0,10.4387595,161.3396642,12.2,'11111222,11111222,11111222' 
TABS,ioos:station:wmo:42045:1,2013-03-04T07:00:00Z,26.2168,-96.4998,4.0,10.51085629,163.9275617,12.03,'11111222,11111222,11111222' 
TABS,ioos:station:wmo:42045:1,2013-03-04T07:30:00Z,26.2168,-96.4998,4.0,10.45334875,166.1634038,12.34,'11111222,11111222,11111222' 
TABS,ioos:station:wmo:42045:1,2013-03-04T08:00:00Z,26.2168,-96.4998,4.0,11.12297173,166.3762815,13.68,'11111222,11111222,11111222' 
TABS,ioos:station:wmo:42045:1,2013-03-04T08:30:00Z,26.2168,-96.4998,4.0,11.04637497,167.8765006,13.41,'11111222,11111222,11111222' 
TABS,ioos:station:wmo:42045:1,2013-03-04T09:00:00Z,26.2168,-96.4998,4.0,11.20623041,168.9911188,14.33,'11111222,11111222,11111222' 
TABS,ioos:station:wmo:42045:1,2013-03-04T09:30:00Z,26.2168,-96.4998,4.0,11.22255764,169.3711713,13.43,'11111222,11111222,11111222' 
TABS,ioos:station:wmo:42045:1,2013-03-04T10:00:00Z,26.2168,-96.4998,4.0,11.27289226,171.5322945,13.27,'11111222,11111222,11111222' 
TABS,ioos:station:wmo:42045:1,2013-03-04T10:30:00Z,26.2168,-96.4998,4.0,11.37367575,169.4115255,13.39,'11111222,11111222,11111222' 
TABS,ioos:station:wmo:42045:1,2013-03-04T11:00:00Z,26.2168,-96.4998,4.0,11.25327508,170.8476136,13.53,'11111222,11111222,11111222' 
TABS,ioos:station:wmo:42045:1,2013-03-04T11:30:00Z,26.2168,-96.4998,4.0,11.04785952,171.9874759,13.03,'11111222,11111222,11111222' 
TABS,ioos:station:wmo:42045:1,2013-03-04T12:00:00Z,26.2168,-96.4998,4.0,11.69403694,170.1029455,14.08,'11111222,11111222,11111222' 
TABS,ioos:station:wmo:42045:1,2013-03-04T12:30:00Z,26.2168,-96.4998,4.0,11.53301782,171.6242246,13.85,'11111222,11111222,11111222' 
TABS,ioos:station:wmo:42045:1,2013-03-04T13:00:00Z,26.2168,-96.4998,4.0,11.18098833,170.8917387,13.74,'11111222,11111222,11111222' 
TABS,ioos:station:wmo:42045:1,2013-03-04T13:30:00Z,26.2168,-96.4998,4.0,11.40380638,173.0497021,13.26,'11111222,11111222,11111222' 
TABS,ioos:station:wmo:42045:1,2013-03-04T14:00:00Z,26.2168,-96.4998,4.0,10.72876973,170.7749581,12.76,'11111222,11111222,11111222' 
TABS,ioos:station:wmo:42045:1,2013-03-04T14:30:00Z,26.2168,-96.4998,4.0,11.20915697,170.0337083,13.56,'11111222,11111222,11111222' 
TABS,ioos:station:wmo:42045:1,2013-03-04T15:00:00Z,26.2168,-96.4998,4.0,11.46537396,170.8665311,13.3,'11111222,11111222,11111222' 
TABS,ioos:station:wmo:42045:1,2013-03-04T15:30:00Z,26.2168,-96.4998,4.0,10.97055149,170.185881,13.98,'11111222,11111222,11111222' 
TABS,ioos:station:wmo:42045:1,2013-03-04T16:00:00Z,26.2168,-96.4998,4.0,10.21054847,172.7986496,12.22,'11111222,11111222,11111222' 
TABS,ioos:station:wmo:42045:1,2013-03-04T16:30:00Z,26.2168,-96.4998,4.0,10.75173009,170.6868437,12.83,'11111222,11111222,11111222' 
TABS,ioos:station:wmo:42045:1,2013-03-04T17:00:00Z,26.2168,-96.4998,4.0,10.2348278,172.1947224,11.57,'11111222,11111222,11111222' 
TABS,ioos:station:wmo:42045:1,2013-03-04T17:30:00Z,26.2168,-96.4998,4.0,9.848553193,173.2360098,11.33,'11111222,11111222,11111222' 
TABS,ioos:station:wmo:42045:1,2013-03-04T18:00:00Z,26.2168,-96.4998,4.0,9.384481872,172.7767647,11.19,'11111222,11111222,11111222' 
TABS,ioos:station:wmo:42045:1,2013-03-04T18:30:00Z,26.2168,-96.4998,4.0,9.508149136,171.3502791,11.35,'11111222,11111222,11111222' 